| time (UTC) | temp C | wind direction | speed KPH | gust KPH | rain 1hr cm | rain 24hr cm | rain mn cm | humidity % | barometer mb |
| 20260508035820 | 23 | 188 | 0.0 | 1.6 | 0.00 | 0.00 | 0.00 | 93 | 1006.7 |
| 20260508035318 | 23 | 182 | 0.0 | 1.6 | 0.00 | 0.00 | 0.00 | 93 | 1006.6 |
| 20260508034814 | 23 | 125 | 1.6 | 3.2 | 0.00 | 0.00 | 0.00 | 93 | 1006.8 |
| 20260508034312 | 23 | 218 | 1.6 | 1.6 | 0.00 | 0.00 | 0.00 | 93 | 1006.6 |
| 20260508033808 | 23 | 111 | 6.4 | 6.4 | 0.00 | 0.00 | 0.00 | 93 | 1006.9 |
| 20260508033307 | 22 | 185 | 0.0 | 0.0 | 0.00 | 0.00 | 0.00 | 92 | 1007.0 |
| 20260508032804 | 22 | 198 | 0.0 | 0.0 | 0.00 | 0.00 | 0.00 | 92 | 1006.9 |
| 20260508032301 | 23 | 184 | 0.0 | 0.0 | 0.00 | 0.00 | 0.00 | 92 | 1007.3 |
| 20260508031758 | 23 | 173 | 0.0 | 0.0 | 0.00 | 0.00 | 0.00 | 92 | 1007.2 |
| 20260508031254 | 23 | 213 | 0.0 | 0.0 | 0.00 | 0.00 | 0.00 | 92 | 1007.0 |
| 20260508030751 | 23 | 184 | 0.0 | 1.6 | 0.00 | 0.00 | 0.00 | 92 | 1007.2 |
| 20260508030248 | 23 | 184 | 0.0 | 0.0 | 0.00 | 0.00 | 0.00 | 92 | 1007.2 |
| 20260508025744 | 23 | 169 | 0.0 | 0.0 | 0.00 | 0.00 | 0.00 | 91 | 1007.3 |
| 20260508025241 | 23 | 190 | 0.0 | 1.6 | 0.00 | 0.00 | 0.00 | 92 | 1007.3 |
| 20260508024738 | 23 | 187 | 0.0 | 0.0 | 0.00 | 0.00 | 0.00 | 92 | 1007.4 |
| 20260508024235 | 23 | 306 | 4.8 | 4.8 | 0.00 | 0.00 | 0.00 | 92 | 1007.3 |
| 20260508023732 | 23 | 49 | 1.6 | 3.2 | 0.00 | 0.00 | 0.00 | 92 | 1007.5 |
| 20260508023229 | 23 | 166 | 0.0 | 0.0 | 0.00 | 0.00 | 0.00 | 92 | 1007.5 |
| 20260508022724 | 23 | 194 | 0.0 | 1.6 | 0.00 | 0.00 | 0.00 | 92 | 1007.5 |
| 20260508022221 | 23 | 143 | 1.6 | 1.6 | 0.00 | 0.00 | 0.00 | 92 | 1007.5 |
| 20260508021718 | 23 | 195 | 1.6 | 1.6 | 0.00 | 0.00 | 0.00 | 92 | 1007.3 |
| 20260508021214 | 23 | 118 | 1.6 | 3.2 | 0.00 | 0.00 | 0.00 | 92 | 1007.6 |
| 20260508020711 | 23 | 159 | 0.0 | 1.6 | 0.00 | 0.00 | 0.00 | 92 | 1007.6 |
| 20260508020208 | 23 | 213 | 1.6 | 1.6 | 0.00 | 0.00 | 0.00 | 92 | 1007.5 |
| 20260508015706 | 23 | 180 | 0.0 | 0.0 | 0.00 | 0.00 | 0.00 | 92 | 1007.6 |
| 20260508015202 | 23 | 198 | 0.0 | 1.6 | 0.00 | 0.00 | 0.00 | 92 | 1007.7 |
| 20260508014659 | 23 | 204 | 1.6 | 1.6 | 0.00 | 0.00 | 0.00 | 92 | 1007.7 |
| 20260508014155 | 23 | 177 | 0.0 | 0.0 | 0.00 | 0.00 | 0.00 | 92 | 1007.6 |
| 20260508013652 | 23 | 160 | 0.0 | 0.0 | 0.00 | 0.00 | 0.00 | 92 | 1007.6 |
| 20260508013148 | 23 | 203 | 1.6 | 3.2 | 0.00 | 0.00 | 0.00 | 92 | 1007.5 |
| 20260508012646 | 23 | 182 | 0.0 | 0.0 | 0.00 | 0.00 | 0.00 | 93 | 1007.4 |
| 20260508012143 | 23 | 234 | 4.8 | 4.8 | 0.00 | 0.00 | 0.00 | 93 | 1007.4 |
| 20260508011641 | 23 | 245 | 3.2 | 4.8 | 0.00 | 0.00 | 0.00 | 93 | 1007.5 |
| 20260508011138 | 23 | 183 | 1.6 | 1.6 | 0.00 | 0.00 | 0.00 | 92 | 1007.2 |
| 20260508010635 | 23 | 185 | 4.8 | 4.8 | 0.00 | 0.00 | 0.00 | 92 | 1007.4 |
| 20260508010133 | 23 | 155 | 3.2 | 4.8 | 0.00 | 0.00 | 0.00 | 93 | 1007.7 |
| 20260508005630 | 23 | 198 | 1.6 | 1.6 | 0.00 | 0.00 | 0.00 | 93 | 1007.5 |
| 20260508005126 | 23 | 184 | 1.6 | 3.2 | 0.00 | 0.00 | 0.00 | 92 | 1007.9 |
| 20260508004621 | 23 | 194 | 1.6 | 3.2 | 0.00 | 0.00 | 0.00 | 92 | 1007.9 |
| 20260508004119 | 23 | 212 | 6.4 | 6.4 | 0.00 | 0.00 | 0.00 | 93 | 1007.8 |
| 20260508003615 | 23 | 225 | 1.6 | 1.6 | 0.00 | 0.00 | 0.00 | 92 | 1007.8 |
| 20260508003113 | 23 | 191 | 1.6 | 3.2 | 0.00 | 0.00 | 0.00 | 92 | 1007.9 |
| 20260508002609 | 23 | 305 | 3.2 | 4.8 | 0.00 | 0.00 | 0.00 | 92 | 1007.9 |
| 20260508002107 | 23 | 197 | 3.2 | 3.2 | 0.00 | 0.00 | 0.00 | 92 | 1007.9 |
| 20260508001602 | 23 | 195 | 1.6 | 1.6 | 0.00 | 0.00 | 0.00 | 92 | 1007.9 |
| 20260508001058 | 23 | 192 | 0.0 | 0.0 | 0.00 | 0.00 | 0.00 | 92 | 1008.1 |
| 20260508000554 | 23 | 183 | 4.8 | 4.8 | 0.00 | 0.00 | 0.00 | 92 | 1008.0 |
| 20260508000052 | 23 | 161 | 6.4 | 9.7 | 0.00 | 0.00 | 0.00 | 92 | 1008.0 |
| 20260507235548 | 23 | 200 | 3.2 | 3.2 | 0.00 | 0.00 | 0.00 | 92 | 1008.1 |
| 20260507235046 | 23 | 189 | 1.6 | 1.6 | 0.00 | 0.00 | 0.00 | 92 | 1008.2 |
| 20260507234542 | 23 | 187 | 0.0 | 0.0 | 0.00 | 0.00 | 0.00 | 92 | 1007.9 |
| 20260507234038 | 23 | 192 | 3.2 | 3.2 | 0.00 | 0.00 | 0.00 | 92 | 1007.9 |
| 20260507233535 | 23 | 207 | 1.6 | 1.6 | 0.00 | 0.00 | 0.00 | 92 | 1008.0 |
| 20260507233034 | 23 | 199 | 0.0 | 1.6 | 0.00 | 0.00 | 0.00 | 92 | 1008.1 |
| 20260507232530 | 23 | 202 | 1.6 | 3.2 | 0.00 | 0.00 | 0.00 | 91 | 1007.9 |
| 20260507232027 | 23 | 189 | 1.6 | 1.6 | 0.00 | 0.00 | 0.00 | 91 | 1007.8 |
| 20260507231524 | 23 | 164 | 1.6 | 1.6 | 0.00 | 0.00 | 0.00 | 91 | 1007.8 |
| 20260507231021 | 23 | 197 | 3.2 | 3.2 | 0.00 | 0.00 | 0.00 | 91 | 1007.8 |
| 20260507230518 | 23 | 195 | 3.2 | 3.2 | 0.00 | 0.00 | 0.00 | 91 | 1008.0 |
| 20260507230014 | 23 | 202 | 0.0 | 0.0 | 0.00 | 0.00 | 0.00 | 91 | 1007.9 |
| 20260507225510 | 23 | 254 | 3.2 | 4.8 | 0.00 | 0.00 | 0.00 | 91 | 1008.0 |
| 20260507225006 | 23 | 178 | 0.0 | 1.6 | 0.00 | 0.00 | 0.00 | 91 | 1007.8 |
| 20260507224502 | 23 | 175 | 0.0 | 1.6 | 0.00 | 0.00 | 0.00 | 91 | 1007.9 |
| 20260507223958 | 23 | 200 | 1.6 | 1.6 | 0.00 | 0.00 | 0.00 | 91 | 1008.2 |
| 20260507223454 | 23 | 167 | 3.2 | 4.8 | 0.00 | 0.00 | 0.00 | 91 | 1007.9 |
| 20260507222952 | 23 | 190 | 0.0 | 1.6 | 0.00 | 0.00 | 0.00 | 91 | 1008.1 |
| 20260507222448 | 23 | 202 | 1.6 | 1.6 | 0.00 | 0.00 | 0.00 | 91 | 1007.9 |
| 20260507221945 | 23 | 157 | 3.2 | 4.8 | 0.00 | 0.00 | 0.00 | 91 | 1008.1 |
| 20260507221442 | 23 | 158 | 3.2 | 4.8 | 0.00 | 0.00 | 0.00 | 91 | 1007.8 |
| 20260507220938 | 23 | 178 | 0.0 | 0.0 | 0.00 | 0.00 | 0.00 | 91 | 1007.7 |
| 20260507220436 | 23 | 195 | 0.0 | 1.6 | 0.00 | 0.00 | 0.00 | 91 | 1007.5 |
| 20260507215932 | 23 | 170 | 6.4 | 9.7 | 0.00 | 0.00 | 0.00 | 91 | 1007.8 |
| 20260507215429 | 23 | 202 | 0.0 | 0.0 | 0.00 | 0.00 | 0.00 | 90 | 1007.7 |
| 20260507214926 | 23 | 211 | 4.8 | 6.4 | 0.00 | 0.00 | 0.00 | 91 | 1007.5 |
| 20260507214424 | 23 | 173 | 0.0 | 0.0 | 0.00 | 0.00 | 0.00 | 90 | 1007.4 |
| 20260507213919 | 23 | 194 | 4.8 | 4.8 | 0.00 | 0.00 | 0.00 | 90 | 1007.5 |
| 20260507213416 | 23 | 200 | 3.2 | 4.8 | 0.00 | 0.00 | 0.00 | 90 | 1007.5 |
| 20260507212913 | 23 | 181 | 3.2 | 9.7 | 0.00 | 0.00 | 0.00 | 91 | 1007.6 |
| 20260507212409 | 23 | 186 | 1.6 | 3.2 | 0.00 | 0.00 | 0.00 | 91 | 1007.5 |
| 20260507211906 | 23 | 205 | 0.0 | 1.6 | 0.00 | 0.00 | 0.00 | 91 | 1007.2 |
| 20260507211402 | 23 | 211 | 1.6 | 3.2 | 0.00 | 0.00 | 0.00 | 91 | 1007.2 |
| 20260507210859 | 23 | 190 | 4.8 | 4.8 | 0.00 | 0.00 | 0.00 | 91 | 1007.3 |
| 20260507210356 | 23 | 204 | 6.4 | 6.4 | 0.00 | 0.00 | 0.00 | 91 | 1007.4 |
| 20260507205852 | 23 | 203 | 3.2 | 3.2 | 0.00 | 0.00 | 0.00 | 91 | 1007.2 |
| 20260507205349 | 23 | 191 | 0.0 | 1.6 | 0.00 | 0.00 | 0.00 | 90 | 1007.2 |
| 20260507204846 | 23 | 204 | 4.8 | 6.4 | 0.00 | 0.00 | 0.00 | 90 | 1007.3 |
| 20260507204343 | 23 | 175 | 3.2 | 4.8 | 0.00 | 0.00 | 0.00 | 90 | 1007.2 |
| 20260507203841 | 23 | 191 | 3.2 | 3.2 | 0.00 | 0.00 | 0.00 | 90 | 1007.1 |
| 20260507203338 | 23 | 225 | 6.4 | 6.4 | 0.00 | 0.00 | 0.00 | 90 | 1007.1 |
| 20260507202834 | 23 | 183 | 6.4 | 6.4 | 0.00 | 0.00 | 0.00 | 90 | 1007.1 |
| 20260507202331 | 23 | 176 | 1.6 | 1.6 | 0.00 | 0.00 | 0.00 | 90 | 1007.1 |
| 20260507201826 | 23 | 182 | 3.2 | 3.2 | 0.00 | 0.00 | 0.00 | 90 | 1007.3 |
| 20260507201322 | 23 | 196 | 4.8 | 4.8 | 0.00 | 0.00 | 0.00 | 89 | 1007.0 |
| 20260507200819 | 23 | 169 | 1.6 | 1.6 | 0.00 | 0.00 | 0.00 | 89 | 1007.1 |
| 20260507200315 | 23 | 183 | 0.0 | 1.6 | 0.00 | 0.00 | 0.00 | 89 | 1007.2 |
| 20260507195811 | 23 | 196 | 1.6 | 3.2 | 0.00 | 0.00 | 0.00 | 89 | 1007.0 |
| 20260507195308 | 23 | 197 | 3.2 | 4.8 | 0.00 | 0.00 | 0.00 | 89 | 1007.0 |
| 20260507194806 | 23 | 208 | 8.0 | 11.3 | 0.00 | 0.00 | 0.00 | 89 | 1007.0 |
| 20260507194302 | 23 | 194 | 3.2 | 4.8 | 0.00 | 0.00 | 0.00 | 89 | 1007.1 |
| 20260507193758 | 23 | 185 | 4.8 | 6.4 | 0.00 | 0.00 | 0.00 | 89 | 1007.4 |
| 20260507193255 | 23 | 163 | 4.8 | 6.4 | 0.00 | 0.00 | 0.00 | 89 | 1007.3 |
| 20260507192751 | 23 | 182 | 3.2 | 4.8 | 0.00 | 0.00 | 0.00 | 88 | 1007.2 |
| 20260507192248 | 23 | 158 | 8.0 | 12.9 | 0.00 | 0.00 | 0.00 | 88 | 1007.4 |
| 20260507191744 | 23 | 214 | 4.8 | 6.4 | 0.00 | 0.00 | 0.00 | 88 | 1007.6 |
| 20260507191241 | 23 | 222 | 1.6 | 1.6 | 0.00 | 0.00 | 0.00 | 88 | 1007.4 |
| 20260507190738 | 23 | 184 | 6.4 | 9.7 | 0.00 | 0.00 | 0.00 | 88 | 1007.4 |
| 20260507190236 | 23 | 124 | 4.8 | 4.8 | 0.00 | 0.00 | 0.00 | 87 | 1007.4 |
| 20260507185735 | 23 | 166 | 6.4 | 6.4 | 0.00 | 0.00 | 0.00 | 87 | 1007.3 |
| 20260507185231 | 23 | 180 | 8.0 | 11.3 | 0.00 | 0.00 | 0.00 | 87 | 1007.3 |
| 20260507184729 | 23 | 192 | 6.4 | 9.7 | 0.00 | 0.00 | 0.00 | 87 | 1007.5 |
| 20260507184227 | 23 | 208 | 4.8 | 4.8 | 0.00 | 0.00 | 0.00 | 87 | 1007.5 |
| 20260507183723 | 23 | 138 | 6.4 | 6.4 | 0.00 | 0.00 | 0.00 | 86 | 1007.6 |
| 20260507183220 | 23 | 198 | 6.4 | 6.4 | 0.00 | 0.00 | 0.00 | 86 | 1007.4 |
| 20260507182717 | 23 | 182 | 4.8 | 4.8 | 0.00 | 0.00 | 0.00 | 86 | 1007.7 |
| 20260507182212 | 23 | 159 | 8.0 | 11.3 | 0.00 | 0.00 | 0.00 | 85 | 1007.9 |
| 20260507181709 | 23 | 175 | 3.2 | 3.2 | 0.00 | 0.00 | 0.00 | 85 | 1007.6 |
| 20260507181206 | 23 | 201 | 6.4 | 6.4 | 0.00 | 0.00 | 0.00 | 85 | 1007.7 |
| 20260507180702 | 24 | 209 | 3.2 | 4.8 | 0.00 | 0.00 | 0.00 | 84 | 1007.5 |
| 20260507180159 | 24 | 181 | 6.4 | 9.7 | 0.00 | 0.00 | 0.00 | 84 | 1007.8 |
| 20260507175655 | 24 | 238 | 8.0 | 9.7 | 0.00 | 0.00 | 0.00 | 84 | 1007.8 |
| 20260507175152 | 24 | 219 | 3.2 | 3.2 | 0.00 | 0.00 | 0.00 | 84 | 1007.9 |
| 20260507174649 | 24 | 190 | 4.8 | 6.4 | 0.00 | 0.00 | 0.00 | 84 | 1007.8 |
| 20260507174148 | 24 | 174 | 8.0 | 11.3 | 0.00 | 0.00 | 0.00 | 83 | 1007.9 |
| 20260507173644 | 24 | 137 | 9.7 | 14.5 | 0.00 | 0.00 | 0.00 | 83 | 1007.9 |
| 20260507173141 | 24 | 170 | 4.8 | 4.8 | 0.00 | 0.00 | 0.00 | 83 | 1008.0 |
| 20260507172637 | 24 | 194 | 8.0 | 9.7 | 0.00 | 0.00 | 0.00 | 83 | 1008.1 |
| 20260507172135 | 24 | 125 | 8.0 | 11.3 | 0.00 | 0.00 | 0.00 | 82 | 1008.2 |
| 20260507171629 | 24 | 155 | 3.2 | 9.7 | 0.00 | 0.00 | 0.00 | 82 | 1008.0 |
| 20260507171127 | 24 | 152 | 9.7 | 14.5 | 0.00 | 0.00 | 0.00 | 82 | 1007.9 |
| 20260507170624 | 24 | 185 | 3.2 | 3.2 | 0.00 | 0.00 | 0.00 | 81 | 1008.1 |
| 20260507170121 | 25 | 168 | 6.4 | 11.3 | 0.00 | 0.00 | 0.00 | 80 | 1008.2 |
| 20260507165616 | 25 | 202 | 6.4 | 9.7 | 0.00 | 0.00 | 0.00 | 80 | 1008.2 |
| 20260507165113 | 25 | 199 | 8.0 | 11.3 | 0.00 | 0.00 | 0.00 | 81 | 1008.3 |
| 20260507164609 | 25 | 274 | 4.8 | 9.7 | 0.00 | 0.00 | 0.00 | 80 | 1008.4 |
| 20260507164106 | 25 | 228 | 6.4 | 6.4 | 0.00 | 0.00 | 0.00 | 81 | 1008.5 |
| 20260507163604 | 25 | 200 | 1.6 | 3.2 | 0.00 | 0.00 | 0.00 | 80 | 1008.7 |
| 20260507163102 | 25 | 176 | 6.4 | 9.7 | 0.00 | 0.00 | 0.00 | 81 | 1008.9 |
| 20260507162601 | 25 | 157 | 8.0 | 9.7 | 0.00 | 0.00 | 0.00 | 82 | 1008.9 |
| 20260507162059 | 25 | 194 | 4.8 | 4.8 | 0.00 | 0.00 | 0.00 | 82 | 1009.1 |
| 20260507161555 | 25 | 196 | 1.6 | 4.8 | 0.00 | 0.00 | 0.00 | 82 | 1009.2 |
| 20260507161051 | 25 | 179 | 4.8 | 4.8 | 0.00 | 0.00 | 0.00 | 82 | 1009.3 |
| 20260507160548 | 25 | 216 | 1.6 | 3.2 | 0.00 | 0.00 | 0.00 | 81 | 1009.5 |
| 20260507160044 | 25 | 188 | 1.6 | 3.2 | 0.00 | 0.00 | 0.00 | 81 | 1009.5 |
| 20260507155539 | 25 | 216 | 4.8 | 9.7 | 0.00 | 0.00 | 0.00 | 80 | 1009.5 |
| 20260507155037 | 25 | 194 | 9.7 | 16.1 | 0.00 | 0.00 | 0.00 | 80 | 1009.7 |
| 20260507154534 | 25 | 194 | 6.4 | 6.4 | 0.00 | 0.00 | 0.00 | 80 | 1009.8 |
| 20260507154031 | 25 | 150 | 9.7 | 11.3 | 0.00 | 0.00 | 0.00 | 80 | 1009.8 |
| 20260507153528 | 26 | 176 | 11.3 | 14.5 | 0.00 | 0.00 | 0.00 | 80 | 1009.9 |
| 20260507153024 | 25 | 197 | 4.8 | 4.8 | 0.00 | 0.00 | 0.00 | 81 | 1010.0 |
| 20260507152519 | 25 | 182 | 6.4 | 6.4 | 0.00 | 0.00 | 0.00 | 82 | 1010.1 |
| 20260507152016 | 25 | 203 | 3.2 | 4.8 | 0.00 | 0.00 | 0.00 | 82 | 1010.5 |
| 20260507151513 | 25 | 201 | 3.2 | 4.8 | 0.00 | 0.00 | 0.00 | 83 | 1010.4 |
| 20260507151010 | 25 | 222 | 9.7 | 12.9 | 0.00 | 0.00 | 0.00 | 83 | 1010.6 |
| 20260507150506 | 25 | 224 | 6.4 | 9.7 | 0.00 | 0.00 | 0.00 | 85 | 1010.8 |
| 20260507150003 | 24 | 203 | 3.2 | 4.8 | 0.00 | 0.00 | 0.00 | 85 | 1010.9 |
| 20260507145458 | 24 | 189 | 1.6 | 3.2 | 0.00 | 0.00 | 0.00 | 86 | 1010.9 |
| 20260507144955 | 23 | 191 | 0.0 | 0.0 | 0.00 | 0.00 | 0.00 | 86 | 1011.2 |
| 20260507144452 | 23 | 179 | 6.4 | 11.3 | 0.00 | 0.00 | 0.00 | 86 | 1011.2 |
| 20260507143949 | 23 | 212 | 0.0 | 0.0 | 0.00 | 0.00 | 0.00 | 86 | 1011.4 |
| 20260507143447 | 23 | 190 | 0.0 | 1.6 | 0.00 | 0.00 | 0.00 | 86 | 1011.6 |
| 20260507142943 | 23 | 192 | 1.6 | 3.2 | 0.00 | 0.00 | 0.00 | 86 | 1011.5 |
| 20260507142439 | 23 | 184 | 3.2 | 3.2 | 0.00 | 0.00 | 0.00 | 86 | 1011.8 |
| 20260507141937 | 24 | 159 | 4.8 | 4.8 | 0.00 | 0.00 | 0.00 | 85 | 1011.7 |
| 20260507141432 | 24 | 191 | 1.6 | 1.6 | 0.00 | 0.00 | 0.00 | 85 | 1011.9 |
| 20260507140929 | 24 | 183 | 6.4 | 9.7 | 0.00 | 0.00 | 0.00 | 85 | 1012.0 |
| 20260507140426 | 24 | 165 | 1.6 | 1.6 | 0.00 | 0.00 | 0.00 | 85 | 1012.0 |
| 20260507135924 | 24 | 186 | 1.6 | 3.2 | 0.00 | 0.00 | 0.00 | 85 | 1012.2 |
| 20260507135420 | 24 | 208 | 4.8 | 4.8 | 0.00 | 0.00 | 0.00 | 85 | 1012.0 |
| 20260507134918 | 24 | 182 | 8.0 | 9.7 | 0.00 | 0.00 | 0.00 | 84 | 1012.3 |
| 20260507134414 | 25 | 154 | 6.4 | 9.7 | 0.00 | 0.00 | 0.00 | 84 | 1012.4 |
| 20260507133910 | 24 | 166 | 1.6 | 3.2 | 0.00 | 0.00 | 0.00 | 85 | 1012.4 |
| 20260507133406 | 24 | 191 | 6.4 | 9.7 | 0.00 | 0.00 | 0.00 | 84 | 1012.5 |
| 20260507132905 | 24 | 217 | 3.2 | 4.8 | 0.00 | 0.00 | 0.00 | 84 | 1012.7 |
| 20260507132400 | 25 | 197 | 6.4 | 9.7 | 0.00 | 0.00 | 0.00 | 84 | 1012.6 |
| 20260507131858 | 24 | 187 | 1.6 | 1.6 | 0.00 | 0.00 | 0.00 | 85 | 1012.8 |
| 20260507131354 | 23 | 187 | 1.6 | 1.6 | 0.00 | 0.00 | 0.00 | 86 | 1013.0 |
| 20260507130851 | 23 | 184 | 1.6 | 1.6 | 0.00 | 0.00 | 0.00 | 86 | 1013.0 |
| 20260507130348 | 23 | 206 | 4.8 | 6.4 | 0.00 | 0.00 | 0.00 | 86 | 1013.2 |
| 20260507125847 | 24 | 205 | 3.2 | 3.2 | 0.00 | 0.00 | 0.00 | 86 | 1012.9 |
| 20260507125344 | 24 | 146 | 3.2 | 3.2 | 0.00 | 0.00 | 0.00 | 86 | 1012.9 |
| 20260507124842 | 24 | 216 | 4.8 | 6.4 | 0.00 | 0.00 | 0.00 | 86 | 1013.0 |
| 20260507124338 | 24 | 193 | 9.7 | 11.3 | 0.00 | 0.00 | 0.00 | 87 | 1013.3 |
| 20260507123837 | 24 | 218 | 4.8 | 6.4 | 0.00 | 0.00 | 0.00 | 88 | 1013.2 |
| 20260507123333 | 24 | 163 | 4.8 | 6.4 | 0.00 | 0.00 | 0.00 | 88 | 1013.1 |
| 20260507122830 | 23 | 211 | 3.2 | 3.2 | 0.00 | 0.00 | 0.00 | 88 | 1013.2 |
| 20260507122325 | 23 | 199 | 3.2 | 3.2 | 0.00 | 0.00 | 0.00 | 89 | 1013.2 |
| 20260507121822 | 23 | 199 | 3.2 | 4.8 | 0.00 | 0.00 | 0.00 | 89 | 1013.3 |
| 20260507121317 | 23 | 206 | 6.4 | 6.4 | 0.00 | 0.00 | 0.00 | 89 | 1013.3 |
| 20260507120814 | 23 | 190 | 3.2 | 3.2 | 0.00 | 0.00 | 0.00 | 90 | 1013.4 |
| 20260507120310 | 23 | 194 | 1.6 | 1.6 | 0.00 | 0.00 | 0.00 | 90 | 1013.3 |
| 20260507115806 | 23 | 190 | 3.2 | 4.8 | 0.00 | 0.00 | 0.00 | 90 | 1013.3 |
| 20260507115306 | 23 | 213 | 3.2 | 3.2 | 0.00 | 0.00 | 0.00 | 90 | 1013.2 |
| 20260507114758 | 23 | 192 | 0.0 | 1.6 | 0.00 | 0.00 | 0.00 | 90 | 1013.3 |
| 20260507114256 | 23 | 199 | 6.4 | 6.4 | 0.00 | 0.00 | 0.00 | 90 | 1013.4 |
| 20260507113753 | 23 | 196 | 0.0 | 1.6 | 0.00 | 0.00 | 0.00 | 91 | 1013.4 |
| 20260507113249 | 23 | 185 | 3.2 | 4.8 | 0.00 | 0.00 | 0.00 | 91 | 1013.4 |
| 20260507112748 | 23 | 188 | 0.0 | 0.0 | 0.00 | 0.00 | 0.00 | 92 | 1013.5 |
| 20260507112244 | 22 | 170 | 1.6 | 3.2 | 0.00 | 0.00 | 0.00 | 92 | 1013.4 |
| 20260507111742 | 22 | 199 | 1.6 | 3.2 | 0.00 | 0.00 | 0.00 | 92 | 1013.7 |
| 20260507111238 | 23 | 207 | 3.2 | 3.2 | 0.00 | 0.00 | 0.00 | 92 | 1013.3 |
| 20260507110734 | 23 | 178 | 3.2 | 3.2 | 0.00 | 0.00 | 0.00 | 92 | 1013.2 |
| 20260507110231 | 22 | 195 | 1.6 | 1.6 | 0.00 | 0.00 | 0.00 | 93 | 1013.3 |
| 20260507105728 | 22 | 198 | 1.6 | 1.6 | 0.00 | 0.00 | 0.00 | 93 | 1013.2 |
| 20260507105224 | 22 | 193 | 0.0 | 0.0 | 0.00 | 0.00 | 0.00 | 93 | 1013.2 |
| 20260507104721 | 22 | 184 | 0.0 | 0.0 | 0.00 | 0.00 | 0.00 | 93 | 1013.3 |
| 20260507104218 | 22 | 183 | 0.0 | 0.0 | 0.00 | 0.00 | 0.00 | 93 | 1013.2 |
| 20260507103714 | 22 | 173 | 0.0 | 0.0 | 0.00 | 0.00 | 0.00 | 93 | 1013.2 |
| 20260507103210 | 22 | 176 | 0.0 | 0.0 | 0.00 | 0.00 | 0.00 | 93 | 1013.4 |
| 20260507102707 | 22 | 175 | 3.2 | 4.8 | 0.00 | 0.00 | 0.00 | 93 | 1013.2 |
| 20260507102203 | 22 | 181 | 0.0 | 0.0 | 0.00 | 0.00 | 0.00 | 94 | 1013.1 |
| 20260507101659 | 22 | 182 | 0.0 | 1.6 | 0.00 | 0.00 | 0.00 | 94 | 1013.1 |
| 20260507101155 | 22 | 185 | 0.0 | 0.0 | 0.00 | 0.00 | 0.00 | 94 | 1013.0 |
| 20260507100653 | 22 | 182 | 0.0 | 0.0 | 0.00 | 0.00 | 0.00 | 94 | 1013.3 |
| 20260507100151 | 22 | 188 | 1.6 | 3.2 | 0.00 | 0.00 | 0.00 | 94 | 1013.1 |
| 20260507095649 | 22 | 218 | 3.2 | 4.8 | 0.00 | 0.00 | 0.00 | 94 | 1013.1 |
| 20260507095145 | 22 | 112 | 1.6 | 1.6 | 0.00 | 0.00 | 0.00 | 94 | 1013.3 |
| 20260507094641 | 22 | 201 | 3.2 | 4.8 | 0.00 | 0.00 | 0.00 | 94 | 1013.3 |
| 20260507094138 | 22 | 179 | 1.6 | 4.8 | 0.00 | 0.00 | 0.00 | 94 | 1013.0 |
| 20260507093635 | 22 | 180 | 0.0 | 0.0 | 0.00 | 0.00 | 0.00 | 94 | 1013.0 |
| 20260507093134 | 22 | 186 | 0.0 | 0.0 | 0.00 | 0.00 | 0.00 | 94 | 1013.2 |
| 20260507092631 | 22 | 163 | 3.2 | 3.2 | 0.00 | 0.00 | 0.00 | 94 | 1013.2 |
| 20260507092127 | 22 | 205 | 4.8 | 4.8 | 0.00 | 0.00 | 0.00 | 94 | 1013.2 |
| 20260507091624 | 22 | 188 | 0.0 | 0.0 | 0.00 | 0.00 | 0.00 | 94 | 1013.1 |
| 20260507091119 | 22 | 192 | 0.0 | 0.0 | 0.00 | 0.00 | 0.00 | 94 | 1013.1 |
| 20260507090616 | 22 | 188 | 0.0 | 1.6 | 0.00 | 0.00 | 0.00 | 94 | 1013.1 |
| 20260507090113 | 22 | 189 | 3.2 | 3.2 | 0.00 | 0.00 | 0.00 | 94 | 1013.0 |
| 20260507085610 | 22 | 179 | 0.0 | 1.6 | 0.00 | 0.00 | 0.00 | 94 | 1013.0 |
| 20260507085106 | 22 | 196 | 0.0 | 0.0 | 0.00 | 0.00 | 0.00 | 94 | 1012.8 |
| 20260507084603 | 22 | 189 | 0.0 | 0.0 | 0.00 | 0.00 | 0.00 | 94 | 1012.9 |
| 20260507084100 | 22 | 191 | 1.6 | 1.6 | 0.00 | 0.00 | 0.00 | 94 | 1012.9 |
| 20260507083556 | 22 | 189 | 0.0 | 1.6 | 0.00 | 0.00 | 0.00 | 94 | 1012.8 |
| 20260507083054 | 22 | 178 | 1.6 | 1.6 | 0.00 | 0.00 | 0.00 | 94 | 1012.8 |
| 20260507082549 | 22 | 179 | 0.0 | 1.6 | 0.00 | 0.00 | 0.00 | 94 | 1012.8 |
| 20260507082046 | 22 | 190 | 0.0 | 1.6 | 0.00 | 0.00 | 0.00 | 94 | 1012.6 |
| 20260507081542 | 22 | 194 | 0.0 | 0.0 | 0.00 | 0.00 | 0.00 | 94 | 1012.6 |
| 20260507081040 | 22 | 195 | 1.6 | 1.6 | 0.00 | 0.00 | 0.00 | 94 | 1012.5 |
| 20260507080535 | 22 | 185 | 1.6 | 1.6 | 0.00 | 0.00 | 0.00 | 94 | 1012.4 |
| 20260507080032 | 22 | 173 | 3.2 | 3.2 | 0.00 | 0.00 | 0.00 | 94 | 1012.5 |
| 20260507075527 | 22 | 186 | 0.0 | 0.0 | 0.00 | 0.00 | 0.00 | 94 | 1012.5 |
| 20260507075024 | 22 | 186 | 1.6 | 1.6 | 0.00 | 0.00 | 0.00 | 94 | 1012.4 |
| 20260507074520 | 22 | 187 | 0.0 | 0.0 | 0.00 | 0.00 | 0.00 | 94 | 1012.7 |
| 20260507074019 | 22 | 189 | 3.2 | 3.2 | 0.00 | 0.00 | 0.00 | 94 | 1012.8 |
| 20260507073515 | 22 | 185 | 0.0 | 1.6 | 0.00 | 0.00 | 0.00 | 94 | 1012.8 |
| 20260507073012 | 22 | 186 | 3.2 | 3.2 | 0.00 | 0.00 | 0.00 | 94 | 1012.9 |
| 20260507072509 | 22 | 188 | 0.0 | 0.0 | 0.00 | 0.00 | 0.00 | 94 | 1012.9 |
| 20260507072006 | 22 | 194 | 1.6 | 3.2 | 0.00 | 0.00 | 0.00 | 94 | 1012.9 |
| 20260507071504 | 22 | 192 | 1.6 | 3.2 | 0.00 | 0.00 | 0.00 | 94 | 1013.0 |
| 20260507071000 | 22 | 193 | 0.0 | 1.6 | 0.00 | 0.00 | 0.00 | 94 | 1013.1 |
| 20260507070457 | 22 | 184 | 1.6 | 1.6 | 0.00 | 0.00 | 0.00 | 94 | 1013.0 |
| 20260507065954 | 22 | 194 | 3.2 | 4.8 | 0.00 | 0.00 | 0.00 | 94 | 1013.0 |
| 20260507065451 | 22 | 187 | 4.8 | 6.4 | 0.00 | 0.00 | 0.00 | 94 | 1013.1 |
| 20260507064948 | 22 | 189 | 1.6 | 1.6 | 0.00 | 0.00 | 0.00 | 94 | 1013.2 |
| 20260507064446 | 22 | 219 | 1.6 | 3.2 | 0.00 | 0.00 | 0.00 | 94 | 1013.2 |
| 20260507063943 | 22 | 211 | 3.2 | 3.2 | 0.00 | 0.00 | 0.00 | 94 | 1013.3 |
| 20260507063440 | 22 | 192 | 0.0 | 0.0 | 0.00 | 0.00 | 0.00 | 94 | 1013.3 |
| 20260507062937 | 22 | 199 | 4.8 | 6.4 | 0.00 | 0.00 | 0.00 | 94 | 1013.4 |
| 20260507062434 | 22 | 179 | 1.6 | 3.2 | 0.00 | 0.00 | 0.00 | 94 | 1013.5 |
| 20260507061932 | 22 | 154 | 3.2 | 3.2 | 0.00 | 0.00 | 0.00 | 94 | 1013.5 |
| 20260507061429 | 22 | 189 | 1.6 | 1.6 | 0.00 | 0.00 | 0.00 | 94 | 1013.7 |
| 20260507060928 | 22 | 188 | 0.0 | 0.0 | 0.00 | 0.00 | 0.00 | 94 | 1013.9 |
| 20260507060424 | 22 | 188 | 0.0 | 0.0 | 0.00 | 0.00 | 0.00 | 94 | 1013.7 |
| 20260507055921 | 22 | 151 | 1.6 | 1.6 | 0.00 | 0.00 | 0.00 | 94 | 1013.6 |
| 20260507055416 | 22 | 193 | 0.0 | 0.0 | 0.00 | 0.00 | 0.00 | 94 | 1014.0 |
| 20260507054914 | 22 | 178 | 0.0 | 1.6 | 0.00 | 0.00 | 0.00 | 94 | 1014.1 |
| 20260507054409 | 22 | 187 | 3.2 | 3.2 | 0.00 | 0.00 | 0.00 | 94 | 1013.7 |
| 20260507053908 | 22 | 195 | 1.6 | 3.2 | 0.00 | 0.00 | 0.00 | 94 | 1014.0 |
| 20260507053405 | 22 | 208 | 1.6 | 3.2 | 0.00 | 0.00 | 0.00 | 94 | 1014.0 |
| 20260507052904 | 22 | 213 | 1.6 | 1.6 | 0.00 | 0.00 | 0.00 | 94 | 1014.2 |
| 20260507052400 | 22 | 185 | 0.0 | 0.0 | 0.00 | 0.00 | 0.00 | 93 | 1014.1 |
| 20260507051857 | 22 | 195 | 1.6 | 1.6 | 0.00 | 0.00 | 0.00 | 93 | 1014.2 |
| 20260507051354 | 22 | 179 | 0.0 | 0.0 | 0.00 | 0.00 | 0.00 | 93 | 1014.4 |
| 20260507050851 | 22 | 208 | 1.6 | 3.2 | 0.00 | 0.00 | 0.00 | 93 | 1014.4 |
| 20260507050348 | 22 | 193 | 0.0 | 0.0 | 0.00 | 0.00 | 0.00 | 93 | 1014.3 |
| 20260507045845 | 22 | 180 | 0.0 | 0.0 | 0.00 | 0.00 | 0.00 | 93 | 1014.3 |
| 20260507045341 | 22 | 211 | 3.2 | 4.8 | 0.00 | 0.00 | 0.00 | 93 | 1014.5 |
| 20260507044838 | 22 | 195 | 1.6 | 3.2 | 0.00 | 0.00 | 0.00 | 93 | 1014.5 |
| 20260507044335 | 22 | 200 | 3.2 | 4.8 | 0.00 | 0.00 | 0.00 | 93 | 1014.9 |
| 20260507043830 | 22 | 191 | 0.0 | 1.6 | 0.00 | 0.00 | 0.00 | 93 | 1014.7 |
| 20260507043327 | 22 | 207 | 1.6 | 1.6 | 0.00 | 0.00 | 0.00 | 93 | 1014.7 |
| 20260507042824 | 22 | 189 | 1.6 | 1.6 | 0.00 | 0.00 | 0.00 | 93 | 1014.8 |
| 20260507042319 | 22 | 200 | 0.0 | 0.0 | 0.00 | 0.00 | 0.00 | 93 | 1014.8 |
| 20260507041817 | 22 | 213 | 3.2 | 3.2 | 0.00 | 0.00 | 0.00 | 93 | 1014.9 |
| 20260507041313 | 22 | 186 | 0.0 | 0.0 | 0.00 | 0.00 | 0.00 | 93 | 1014.7 |
| 20260507040810 | 22 | 197 | 0.0 | 1.6 | 0.00 | 0.00 | 0.00 | 93 | 1014.9 |
| 20260507040306 | 22 | 193 | 1.6 | 1.6 | 0.00 | 0.00 | 0.00 | 93 | 1014.9 |